Weather Roundup
Issued by NWS Chicago, IL

Home | Current Version | Previous Version | Graphics & Text | Print | Product List | Glossary On
Versions: 1 2 3 4 5 6 7 8 9 10 11 12 13 14 15 16 17 18 19 20 21 22 23 24 25 26 27 28 29 30 31 32 33 34 35 36 37 38 39 40 41 42 43 44 45 46 47 48 49 50
000
NZUS59 KLOT 201212
HRRLOT

CHICAGO AREA WEATHER ROUNDUP
NATIONAL WEATHER SERVICE CHICAGO/ROMEOVILLE IL
600 AM CST MON FEB 20 2017

NOTE: "FAIR" INDICATES FEW OR NO CLOUDS BELOW 12,000 FEET WITH NO
SIGNIFICANT WEATHER AND/OR OBSTRUCTIONS TO VISIBILITY.

* THESE STATIONS ARE NOT UNDER NWS QUALITY CONTROL. THEY ALSO MAY NOT
  REPORT WEATHER SUCH AS PRECIPITATION OR FOG.

ILZ005-006-012>014-019>023-201300-
NORTHEAST ILLINOIS

CITY           SKY/WX    TMP DP  RH WIND       PRES   REMARKS
OHARE          CLOUDY    46  43  89 S6        30.12R FOG
6HR MIN TEMP:  41; 6HR MAX TEMP:  47;

MIDWAY         CLOUDY    48  43  82 SE3       30.13R FOG
6HR MIN TEMP:  46; 6HR MAX TEMP:  51;

AURORA         PTCLDY    44  41  89 SE7       30.11S FOG
6HR MIN TEMP:  43; 6HR MAX TEMP:  48;

LANSING*       CLOUDY    42  42  99 SE3       30.14R FOG
JOLIET*        CLOUDY    47  46  97 SE6       30.12S FOG
WAUKEGAN       PTCLDY    42  37  82 SE7       30.12R
6HR MIN TEMP:  33; 6HR MAX TEMP:  42;

DUPAGE AIRPORT MOCLDY    45  41  86 SE3       30.11R FOG
6HR MIN TEMP:  40; 6HR MAX TEMP:  48;

WHEELING       CLOUDY    41  38  89 CALM      30.14R
6HR MIN TEMP:  37; 6HR MAX TEMP:  45;

KANKAKEE*      CLOUDY    43  42  97 CALM      30.14S FOG
MORRIS*        FOG       44  43  97 CALM      30.10S VSB 1
LEWIS AIRPORT* CLOUDY    46  46 100 S9        30.12R FOG
NORTHERLY ISL    N/A     38  36  92 CALM        N/A
$$

WIZ051-052-058>065-066-070>072-201300-
SOUTHEAST WISCONSIN

CITY           SKY/WX    TMP DP  RH WIND       PRES   REMARKS
MILWAUKEE      MOCLDY    38  32  79 CALM      30.13R
6HR MIN TEMP:  35; 6HR MAX TEMP:  39;

KENOSHA*       PTCLDY    40  34  79 SE3       30.12R
RACINE*        PTCLDY    40  32  73 CALM      30.14R
WAUKESHA       CLEAR     34  30  86 CALM      30.13R
WEST BEND      MOCLDY    30  30 100 CALM      30.12F
$$

INZ001>003-010>013-019-020-201300-
NORTHWEST INDIANA

CITY           SKY/WX    TMP DP  RH WIND       PRES   REMARKS
GARY*          MOCLDY    46  43  87 SE9       30.14S FOG
MICHIGAN CITY* NOT AVBL
RENSSELAER*    NOT AVBL
VALPARAISO     CLOUDY    40  38  93 E6        30.16R FOG
$$

LMZ740>746-201300-
SOUTHERN LAKE MICHIGAN

STATION/POSITION TIME  SKY/WX   TEMP WIND        PRES    VSBY
                                AIR  DIR/SP/G
                 (UTC)          (F)  (DEG/KT/KT) (MB)    (MI)
HARRISON CRIB    1140            43  130/ 16/ 17   N/A
BURNHAM HARBOR   1200            38   CALM  /  2   N/A
CALUMET HARBOR   1142            45  140/  4/ 10 1019.6R
BURNS HARBOR     1140            50  140/  8/ 11 1021.0S
MICHIGAN CITY    1140            46  120/  8/  9   N/A
$$

ABBREVIATIONS USED IN REMARKS
   TC - TEMPERATURE IN CELSIUS
  WCI - WIND CHILL INDEX
   HX - HEAT INDEX
  VSB - VISIBILITY
$$



USA.gov is the U.S. government's official web portal to all federal, state and local government web resources and services.